Regional Weather Roundup
Issued by NWS

Home | Current Version | Previous Version | Text Only | Print | Product List | Glossary Off
Versions: 1 2 3 4 5 6 7 8 9 10 11 12 13 14 15 16 17 18 19 20 21 22 23 24 25 26 27 28 29 30 31 32 33 34 35 36 37 38 39 40 41 42 43 44 45 46 47 48 49 50

000
ASUS43 KTOP 241408
RWRKS

WEATHER ROUNDUP FOR KANSAS
NATIONAL WEATHER SERVICE GOODLAND KS
800 AM CST FRI FEB 24 2017

NOTE:  "FAIR" INDICATES FEW OR NO CLOUDS BELOW 12,000 FEET WITH NO
SIGNIFICANT WEATHER AND/OR OBSTRUCTIONS TO VISIBILITY.

KSZ001>006-013>018-027>032-041>047-241500-
NORTHWEST KANSAS

CITY           SKY/WX    TMP DP  RH WIND       PRES   REMARKS
GOODLAND       LGT SNOW  20  18  92 N17       29.88R WCI   5
HAYS           FLURRIES  27  24  89 NW20G25   29.85R WCI  13
HILL CITY      LGT SNOW  26  24  92 N16G23    29.87R FOG     WCI  14
RUSSELL        CLOUDY    28  26  92 NW18      29.83R FOG     WCI  15
$$

KSZ061>065-074>080-084>089-241500-
SOUTHWEST KANSAS

CITY           SKY/WX    TMP DP  RH WIND       PRES   REMARKS
DODGE CITY     PTCLDY    25  19  78 NW13      29.86R WCI  14
ELKHART          N/A     21   7  55 NW10        N/A  WCI  10
GARDEN CITY    CLOUDY    26  15  63 NW17G32   29.88R WCI  13
GREAT BEND     MIX PCPN  29  25  85 NW18      29.84R WCI  16
LIBERAL        CLEAR     25  14  63 NW10      29.89R WCI  15
PRATT          CLOUDY    28  19  69 NW23G29   29.83R WCI  14
$$

KSZ066>073-081>083-090>101-241500-
SOUTHEAST KANSAS

CITY           SKY/WX    TMP DP  RH WIND       PRES   REMARKS
CHANUTE        CLOUDY    38  30  73 NW13      29.73R WCI  30
COFFEYVILLE    SUNNY     39  31  72 NW15G24   29.75R WCI  31
HUTCHINSON     CLOUDY    32  24  72 NW20G31   29.80R WCI  20
MEDICINE LODGE   N/A     31  21  66 NW16G25   29.84R WCI  20
NEWTON         CLOUDY    32  25  75 NW20G32   29.77R WCI  20
PARSONS        CLOUDY    39  30  70 NW15      29.74R WCI  31
WICHITA INTL   CLOUDY    35  25  66 NW17G26   29.80R WCI  25
WICHITA JABRA  CLOUDY    34  25  69 NW17G30   29.78R WCI  23
WICHITA MCCONL CLOUDY    35  24  63 NW16G26   29.78R WCI  25
WINFIELD       CLOUDY    36  27  69 NW16      29.80R WCI  26
$$

KSZ007>012-019>026-033>040-048>060-102>105-241500-
NORTHEAST KANSAS

CITY           SKY/WX    TMP DP  RH WIND       PRES   REMARKS
CONCORDIA      FRZ RAIN  29  28  96 N18G29    29.77R FOG     WCI  16
EMPORIA        CLOUDY    35  29  78 NW18G30   29.72R WCI  24
LAWRENCE       CLOUDY    37  36  96 W14       29.67R FOG     WCI  28
MANHATTAN      CLOUDY    33  31  92 NW7       29.73R
MARYSVILLE     LGT SNOW  32  30  93 N16       29.72R WCI  21
OLATHE IND     CLOUDY    37  34  89 W14       29.66R WCI  28
OLATHE EXE     CLOUDY    36  35  96 W10       29.65R WCI  28
SALINA         CLOUDY    33  28  81 NW20      29.79R WCI  21
TOPEKA BILLARD CLOUDY    36  36 100 W9        29.69R FOG
TOPEKA FORBES  CLOUDY    37  34  89 W14       29.69R FOG     WCI  28
$$



USA.gov is the U.S. government's official web portal to all federal, state and local government web resources and services.